Location: Newark
(44.3100°N, 0.7769°W)
Time: 12:26:54
(UTC+00:00)

Envisat - Pass Details

Date: 19 November 2019
Orbit: 764 x 766 km, 98.1° (Epoch: 11 December)

Event Time Altitude Azimuth Distance (km) Brightness Sun altitude
Rises 05:59:35 0° 25° (NNE) 3,241 6.4 -11.5°
Reaches altitude 10° 06:02:18 10° 38° (NE) 2,309 5.8 -11.0°
Maximum altitude 06:06:27 25° 93° (E) 1,513 5.5 -10.3°
Drops below altitude 10° 06:10:34 10° 148° (SSE) 2,295 6.3 -9.6°
Sets 06:13:15 0° 162° (SSE) 3,216 6.8 -9.1°
